Volver al catálogo

FENGYUN 1C DEB

ActivoSSO
NORAD 31082·DEBRIS·🇨🇳 China

Lanzado May 10, 1999 desde Taiyuan Satellite Launch Center

Loading…

Próximos Pases (próximas 24 horas)

TLE

EnvejeciendoSource: Space-Track

Época: Sep 4, 2026, 06:13 UTC

1 31082U 99025BGC 26247.25935584  .00000617  00000-0  33985-3 0  9996
2 31082  98.6758 251.7211 0068781 161.6520 198.7158 14.13920565    15

Sigue FENGYUN 1C DEB en tiempo real con AllMySat

Download on the App Store